Location: Fuglau
(48.6333°N, 15.5500°E)
Time: 10:39:18
(UTC+00:00)

Okean 1-7 - Pass Details

Date: 27 February 2020
Orbit: 592 x 618 km, 82.5° (Epoch: 04 April)

Event Time Altitude Azimuth Distance (km) Brightness Sun altitude
Rises 17:03:47 0° 358° (N) 2,865 6.4 -5.1°
Reaches altitude 10° 17:06:14 10° 10° (N) 1,961 5.5 -5.5°
Maximum altitude 17:10:02 29° 71° (ENE) 1,122 3.9 -6.2°
Drops below altitude 10° 17:13:50 10° 133° (SE) 1,962 5.2 -6.8°
Sets 17:16:17 0° 144° (SE) 2,865 6.2 -7.2°
